This is the latest recevied weather packets stored in our database for station/object AE5HO. If no packets are shown the sender has not sent any weather packets the latest 10 day(s).
| Time | Temp. | Humidity | Pressure | Rain* | Wind** | Luminosity | Snow |
|---|---|---|---|---|---|---|---|
| 1787700043 | 37.78° C | 31% | 1013.6 hPa | 0 mm | - | 93 W/m² | - |
| 1787699739 | 37.78° C | 30% | 1013.8 hPa | 0 mm | - | 35 W/m² | - |
| 1787699434 | 37.78° C | 31% | 1013.6 hPa | 0 mm | - | 38 W/m² | - |
| 1787699131 | 38.33° C | 31% | 1013.7 hPa | 0 mm | - | 38 W/m² | - |
| 1787698826 | 37.78° C | 32% | 1013.7 hPa | 0 mm | - | 40 W/m² | - |
| 1787698521 | 37.78° C | 31% | 1013.7 hPa | 0 mm | - | 42 W/m² | - |
| 1787698218 | 37.78° C | 30% | 1013.6 hPa | 0 mm | - | 57 W/m² | - |
| 1787697913 | 37.78° C | 32% | 1013.8 hPa | 0 mm | - | 54 W/m² | - |
| 1787697608 | 37.22° C | 32% | 1013.9 hPa | 0 mm | - | 61 W/m² | - |
| 1787697304 | 37.22° C | 33% | 1013.6 hPa | 0 mm | - | 71 W/m² | - |
| 1787697004 | 37.22° C | 34% | 1013.6 hPa | 0 mm | - | 77 W/m² | - |
| 1787696699 | 37.78° C | 33% | 1013.5 hPa | 0 mm | - | 81 W/m² | - |
| 1787696395 | 37.22° C | 32% | 1013.6 hPa | 0 mm | - | 84 W/m² | - |
| 1787696091 | 37.78° C | 31% | 1013.4 hPa | 0 mm | - | 94 W/m² | - |
| 1787695790 | 37.78° C | 30% | 1013.3 hPa | 0 mm | - | 113 W/m² | - |
| 1787695486 | 37.78° C | 29% | 1013.4 hPa | 0 mm | - | 109 W/m² | - |
| 1787695186 | 37.22° C | 30% | 1013.4 hPa | 0 mm | - | 102 W/m² | - |
| 1787694884 | 37.22° C | 31% | 1013.4 hPa | 0 mm | - | 86 W/m² | - |
| 1787694581 | 37.22° C | 31% | 1013.3 hPa | 0 mm | - | 93 W/m² | - |
| 1787694280 | 37.22° C | 32% | 1013.5 hPa | 0 mm | - | 86 W/m² | - |
| 1787693976 | 37.22° C | 32% | 1013.3 hPa | 0 mm | - | 79 W/m² | - |
| 1787693671 | 37.22° C | 31% | 1013.3 hPa | 0 mm | - | 75 W/m² | - |
| 1787693368 | 37.22° C | 31% | 1013.5 hPa | 0 mm | - | 67 W/m² | - |
| 1787693064 | 37.22° C | 32% | 1013.6 hPa | 0 mm | - | 83 W/m² | - |
| 1787692759 | 36.67° C | 34% | 1013.7 hPa | 0 mm | - | 97 W/m² | - |
* Rain latest hour (hover to see other rain measurements)
** Current wind speed in m/s (hover to see current wind gust speed)